Location: B?jaj?g
(11.7167°N, 92.6667°E)
Time: 16:06:53
(UTC+00:00)

Cosmos 2298 Rocket - Pass Details

Date: 18 September 2020
Orbit: 777 x 783 km, 74.0° (Epoch: 30 October)

Event Time Altitude Azimuth Distance (km) Brightness Sun altitude
Rises 13:04:34 0° 197° (SSW) 3,257 7.4 -19.5°
Reaches altitude 10° 13:06:57 10° 199° (SSW) 2,330 6.6 -20.1°
Maximum altitude 13:12:14 70° 283° (WNW) 827 4.3 -21.4°
Drops below altitude 10° 13:17:30 10° 7° (N) 2,331 6.5 -22.7°
Sets 13:19:54 0° 9° (N) 3,259 7.2 -23.3°
